{"data":{"norad_id":68251,"intl_designator":"2026-054V","name":"STARLINK-36274","alt_names":[],"object_type":"PAYLOAD","status":"ACTIVE","operator":null,"country":"US","launch_date":"2026-03-17","launch_site_code":"AFETR","launch_vehicle":null,"mission":null,"orbit_class":"UNKNOWN","rcs_meters":null,"size_class":null,"mass_kg":null,"dimensions":null,"purposes":["comms"],"wikipedia_slug":null,"has_3d_model":false,"image_url":null,"decayed_at":null,"tle_current":{"epoch":"2026-05-24T22:07:59.158272Z","epoch_age_seconds":75705,"freshness":"FRESH","line1":"1 68251U 26054V   26144.92221248  .00013098  00000+0  45348-3 0  9993","line2":"2 68251  53.1573 302.7892 0000920  83.7010 276.4095 15.30206134 10660","mean_motion":15.30206134,"eccentricity":9.2e-5,"inclination_deg":53.1573,"raan_deg":302.7892,"arg_perigee_deg":83.701,"mean_anomaly_deg":276.4095,"bstar":0.00045348,"rev_number":1066,"period_min":94.10496847479,"perigee_km":474.56624775676,"apogee_km":475.82726116758,"semimajor_km":6853.3337544622,"source":"CELESTRAK","updated_at":"2026-05-25T13:38:21.887082Z"}}}